Location: Red Shale Campground
(45.5700°N, 106.1600°W)
Time: 06:04:41
(UTC-07:00)

Daily predictions for brighter satellites

Satellite Brightness Start Highest point End
(mag) Time Altitude Azimuth Time Altitude Azimuth Time Altitude Azimuth
Cosmos 1655 Rocket 4.1 16:47:33 10° N 16:53:53 60° ENE 17:00:11 10° SSE
CENTAUR R/B 3.9 16:49:47 10° NNW 16:56:02 27° NNE 17:02:47 10° E
BREEZE-M DEB (TANK) 3.2 16:53:44 10° WNW 16:56:02 44° NNE 17:00:07 10° E
NOSS 2-3 (C) 4.3 16:52:49 10° SW 16:57:31 68° NW 17:03:10 10° NE
Cosmos 2227 Rocket 2.4 16:52:19 10° NNW 16:57:50 49° ENE 17:03:18 10° SE
Cosmos 1455 Rocket 3.5 16:54:27 10° N 16:58:39 40° ENE 17:02:47 10° SSE
ERS-2 4.0 16:57:32 10° E 16:58:55 12° ENE 17:00:19 10° NE
CZ-2C R/B 2.9 16:54:25 10° S 16:59:35 71° WSW 17:04:44 10° NNW
USA 161 1.6 16:59:27 10° N 17:02:22 81° WNW 17:05:22 10° SSW
Cosmos 1544 Rocket 3.8 16:58:44 10° N 17:02:58 48° ENE 17:07:09 10° SSE
Cosmos 1271 Rocket 2.8 17:00:35 10° N 17:04:19 53° ENE 17:08:04 10° SSE
Cosmos 2219 3.8 16:59:15 10° NNW 17:04:47 63° WSW 17:10:19 10° S
CORIOLIS 4.4 17:00:42 10° SE 17:05:51 47° ENE 17:11:01 10° N
Ariane Rocket 3.0 17:05:33 10° SSE 17:10:31 60° ENE 17:15:30 10° N
Cosmos 1898 Rocket 4.2 17:05:36 10° SW 17:10:42 55° WNW 17:15:54 10° NNE
Meteor 2-9 Rocket 4.5 17:05:52 10° N 17:11:07 43° ENE 17:16:14 10° SE
YAOGAN 1 3.3 17:07:45 10° SE 17:11:31 30° ENE 17:15:19 10° N
Meteor 1-12 Rocket 4.4 17:10:24 10° NNW 17:16:07 81° W 17:21:53 10° S
Cosmos 1943 Rocket 4.2 17:12:04 10° W 17:16:13 20° NW 17:20:24 10° N
AQUARIUS 4.2 17:12:40 10° SSE 17:17:06 63° ENE 17:21:34 10° N
Cosmos 1980 Rocket 3.9 17:15:34 10° ESE 17:17:58 13° E 17:19:35 11° ENE
Cosmos 1269 Rocket 4.5 17:13:04 10° N 17:18:05 39° ENE 17:23:02 10° SE
Cosmos 389 Rocket 2.7 17:16:17 10° NNW 17:19:46 71° W 17:23:12 10° S
Cosmos 1937 Rocket 4.0 17:15:20 10° SSW 17:20:27 61° WNW 17:25:34 10° NNE
Okean 1 4.0 17:16:36 10° SSW 17:20:30 57° WNW 17:24:27 10° N
Cosmos 1125 Rocket 4.1 17:17:31 10° S 17:22:24 39° ESE 17:27:18 10° NE
Cosmos 1666 2.5 17:19:30 10° N 17:23:16 81° E 17:27:00 10° S
Cosmos 1484 Rocket 2.8 17:20:05 10° SSE 17:24:06 83° ENE 17:28:08 10° N
Cosmos 2297 Rocket 2.2 17:18:51 10° NNW 17:24:30 67° ENE 17:30:07 10° SE
USA 238 DEB 3.9 17:17:47 10° NW 17:24:56 88° SW 17:32:08 10° SE
USA 238 3.9 17:17:54 10° NW 17:25:02 89° SW 17:32:14 10° SE
COSMO-SKYMED 1 3.7 17:21:48 11° NE 17:25:10 23° E 17:28:40 10° SSE
Atlas Centaur 2 4.4 17:23:03 10° SW 17:25:53 14° SSW 17:28:26 10° SSE
Gblst 52 Del rocket 4.3 17:21:37 10° WNW 17:27:07 61° NNE 17:33:02 10° E
CZ-2C R/B 4.2 17:23:09 10° NNE 17:27:37 42° E 17:32:06 10° S
Cosmos 1048 Rocket 4.1 17:23:14 10° NNW 17:28:34 58° ENE 17:33:50 10° SE
SJ 16-02 1.8 17:27:19 10° S 17:31:26 41° ESE 17:35:01 13° NE
Cosmos 1656 4.1 17:26:48 10° S 17:32:00 42° ESE 17:36:33 13° NE
Cosmos 1975 Rocket 4.1 17:29:42 10° SSW 17:34:03 49° WNW 17:38:25 10° N
IRS-1A Rocket 4.2 17:29:37 10° SSE 17:35:07 64° ENE 17:40:35 10° N
Cosmos 1975 4.4 17:33:25 10° NNW 17:37:11 38° W 17:40:57 10° SSW
Cosmos 372 Rocket 4.2 17:33:35 10° S 17:38:36 51° ESE 17:43:10 12° NNE
Cosmos 2279 Rocket 4.3 17:34:11 10° SSW 17:40:25 70° W 17:46:41 10° N
SMAP 3.3 17:37:45 10° S 17:42:22 72° WSW 17:47:03 10° NNW
NOAA 15 4.5 17:37:44 10° SSE 17:42:56 73° ENE 17:48:12 10° N
Cosmos 724 4.2 17:37:36 10° NW 17:43:26 86° NE 17:49:15 10° SE
Meteor 2-4 Rocket 3.5 17:45:22 10° S 17:50:46 76° E 17:56:09 10° NNE
NOSS 3-2 (A) 4.0 17:46:11 10° NW 17:53:41 84° NE 18:01:54 10° SE
Cosmos 1025 Rocket 3.6 17:51:55 10° SSE 17:55:45 33° E 17:56:56 28° ENE
NOAA 12 4.3 17:50:58 10° SE 17:56:00 48° ENE 18:01:02 10° N
ALOS 2.4 17:52:08 10° SE 17:56:36 48° ENE 18:01:05 10° N
DELTA 2 R/B (1) 4.4 17:51:22 10° WSW 17:56:39 46° S 18:00:47 16° ESE
Meteor 1-28 Rocket 3.5 17:55:18 10° N 17:59:02 66° WNW 18:02:46 10° SSW
Cosmos 2263 Rocket 3.8 17:56:55 10° N 17:59:25 16° NNE 17:59:25 16° NNE
Meteor 1-13 Rocket 4.5 17:55:43 10° SSW 18:01:17 71° WNW 18:07:02 10° N
NOSS 3-2 (C) 3.9 17:53:55 10° NW 18:01:23 76° NE 18:09:34 10° SE
Cosmos 2369 3.6 17:56:09 10° SSW 18:01:50 83° ESE 18:06:28 16° NNE
Cosmos 1536 Rocket 3.6 17:57:51 10° SSW 18:02:12 78° W 18:06:34 10° N
Cosmos 2278 3.6 17:56:43 10° SSW 18:02:23 80° ESE 18:06:54 17° NNE
CZ-4 R/B 2.1 17:59:00 10° S 18:02:48 54° W 18:06:43 10° NNW
NOSS 5 (C) 4.3 18:01:10 10° SW 18:04:54 87° NW 18:05:54 42° NE
FENGYUN 3A 3.6 18:00:17 10° SSE 18:05:33 59° ENE 18:10:49 10° N
METEOR-M 4.1 18:01:20 10° SSE 18:06:41 87° WSW 18:12:04 10° NNW
ATLAS 3B R/B 3.5 18:01:12 10° NW 18:07:35 50° WSW 18:13:48 10° SSE
Cosmos 2084 4.2 18:05:35 10° S 18:09:16 31° ESE 18:09:21 31° ESE
ATLAS 2AS CENTAUR R/B 3.5 18:01:59 10° WSW 18:09:44 58° NW 18:16:35 15° NNE
EO 1 Del DPAF 3.3 18:08:52 41° NE 18:09:47 51° E 18:13:30 10° S
SKYMED 2 3.4 18:10:25 19° NNE 18:13:28 74° ESE 18:17:47 10° S
Cosmos 1515 3.6 18:10:24 10° S 18:14:08 61° E 18:14:56 47° NE
Meteor 1-15 Rocket 4.3 18:09:54 10° N 18:15:53 86° E 18:21:47 10° S
DNEPR-1 R/B 4.1 18:12:35 10° NNW 18:17:30 57° NE 18:20:49 25° ESE
USA 215 4.5 18:13:02 10° SSE 18:19:08 42° SW 18:25:17 10° WNW
Nadezhda 2 Rocket 4.4 18:13:02 10° N 18:19:22 75° E 18:25:45 10° SSE
Cosmos 1697 Rocket 2.6 18:14:24 10° SSW 18:20:01 69° ESE 18:22:52 30° NE
Abrixas rocket 2.7 18:16:52 10° WNW 18:19:50 47° NNW 18:19:50 47° NNW
PSLV R/B 4.2 18:20:27 10° WSW 18:23:20 35° S 18:23:20 35° S
Okean 2 3.2 18:19:32 10° S 18:23:35 67° E 18:24:16 55° NE
ISS -0.4 18:25:31 10° WSW 18:26:18 11° SW 18:27:05 10° SW
Landsat 4 4.1 18:24:56 24° N 18:27:06 63° WNW 18:30:52 10° SSW
BREEZE-M DEB (TANK) 3.3 18:25:21 10° WNW 18:28:05 53° NNE 18:28:46 47° NE
NOSS 3-4 (A) 3.4 18:24:39 10° SSW 18:30:49 69° ESE 18:33:16 39° NE
NOSS 3-4 (C) 3.4 18:24:46 10° SSW 18:30:55 68° ESE 18:33:20 39° NE
ERS-2 2.6 18:28:29 10° S 18:32:06 61° WSW 18:35:45 10° NNW
Gbstr 26 Del rocket 4.3 18:30:39 10° SW 18:38:39 81° SSE 18:41:19 43° ENE
SPOT 3 Rocket 3.8 18:36:08 10° S 18:41:17 68° WSW 18:46:27 10° NNW
Cosmos 2227 Rocket 4.3 18:36:54 10° NW 18:41:36 27° WSW 18:46:16 10° SSW
FengYun 1-2 T 4.1 18:40:12 10° SSE 18:45:46 70° ENE 18:51:25 10° N
CENTAUR R/B 3.0 18:40:23 10° NW 18:48:10 69° NE 18:51:51 37° ESE
Cosmos 2251 Rocket 3.3 18:49:01 10° NNW 18:54:11 76° NE 18:54:11 76° NE
Cosmos 494 Rocket 4.2 18:52:29 10° NNW 18:57:45 69° WSW 19:02:56 10° S
Cosmos 1980 Rocket 2.0 18:55:22 10° SSW 19:01:03 85° ESE 19:01:25 78° NE
COSMO-SKYMED 1 4.0 18:59:01 20° NNW 19:01:24 36° WNW 19:05:22 10° SW
Cosmos 1066 Rocket 4.1 18:56:43 10° S 19:01:39 70° SSE 19:01:39 70° SSE
S3M 3.9 18:56:37 10° S 19:01:52 60° SE 19:01:52 60° SE
SJ 16-02 3.5 19:06:44 10° WSW 19:10:12 22° WNW 19:12:04 17° NNW
Cosmos 1553 Rocket 4.3 19:29:53 10° SSW 19:36:14 64° W 19:37:23 55° NNW
Cosmos 2263 Rocket 4.1 19:39:37 10° NNW 19:41:08 19° NNW 19:41:08 19° NNW
Cosmos 2344 4.5 19:46:34 10° SSW 19:50:39 35° S 19:50:39 35° S
CENTAUR R/B 4.2 20:31:34 10° NW 20:38:39 36° WSW 20:39:08 35° WSW
